Location: El Bakhil
(32.7726°N, 5.5387°W)
Time: 18:49:55
(UTC+00:00)

Envisat - Pass Details

Date: 10 December 2021
Orbit: 764 x 766 km, 98.2° (Epoch: 17 January)

Event Time Altitude Azimuth Distance (km) Brightness Sun altitude
Rises 05:11:42 0° 13° (NNE) 3,235 6.3 -25.0°
Reaches altitude 10° 05:14:01 10° 15° (NNE) 2,305 5.5 -24.5°
Maximum altitude 05:19:06 80° 102° (ESE) 779 3.0 -23.4°
Drops below altitude 10° 05:24:09 10° 190° (S) 2,290 5.5 -22.4°
Sets 05:26:27 0° 191° (S) 3,212 6.3 -21.9°
